Accueil
METAR-TAF:

METAR-TAF

Aéroports :

Le Luc, France

latitude: 43-23N, longitude: 006-23E, altitude: 80 m

Observation

Le bulletin a été fait il y a 32 minutes, à 13:00 UTC
Vent 27 kt de ouest/nord-ouest avec des rafales jusqu'à 39 kt
Température 21°C
Humidité 23%
Pression 1013 hPa
Visibilité 10 km ou plus

METAR: LFMC 221300Z AUTO 29027G39KT 9999 ////// 21/M01 Q1013

Heure: 15:32 (13:32 UTC)


TAF: absent

Observations et prévisions météorologiques de plus de 4000 aéroports (messages METAR et TAF).

Les stations disponibles sont représentées par des disques jaunes et rouges sur la carte.

Passer la souris dessus pour voir le nom de la station.

Cliquer dessus pour voir les observations et prévisions météorologiques.

Pour changer de carte: cliquez sur les boutons verts avec une croix noire pour zoomer, sur le bouton vert avec un tiret pour effectuer un zoom arrière, ou sur les flèches vertes pour les cartes adjacentes.


METAR-TAF: